Weather in Verkhovazhje

Russia / Vologda Oblast     60°44′34″N   42°02′41″E
temp.,
°C
wind,
m/s
gust,
m/s
humid.,
%
clouds,
%
prec.,
mm/h
press.,
hPa
HPBL,
m
15 august, mon
mon1500:00+13sse22814 0.0 102329
03:00+12ssw22965 0.0 102323
06:00+13wsw13855 0.0 102491
09:00+21w12551 0.0 1024464
12:00+25w12385 0.0 10241357
15:00+26nnw12354 0.0 10231734
18:00+24nne11525 0.0 102320
21:00+18se116420 0.0 102411
16 august, tue
tue1600:00+16s11715 0.0 102511
03:00+15ssw227672 0.0 102513
06:00+16s117798 0.0 102537
09:00+22s2359100 0.0 1025386
12:00+25sw2349100 0.0 10251183
15:00+24wsw2356100 0.0 1024287
18:00+23ssw1162100 0.0 102411
21:00+19sse227461 0.0 102427
17 august, wed
wed1700:00+16s118399 0.0 102411
03:00+16ssw2283100 0.0 102420
06:00+17ssw1280100 0.0 102443
09:00+23ssw12555 0.0 1023435
12:00+27s22414 0.0 10231780
15:00+24ssw2454100 0.0 1022361
18:00+22ssw116178 0.0 102225
21:00+18ssw237433 0.0 102252
18 august, thu
thu1800:00+16ssw22810 0.0 102228
03:00+16ssw12820 0.0 102313
06:00+16ssw12790 0.0 102357
09:00+23s23530 0.0 1023492
12:00+26s23410 0.0 10231737
15:00+27s23372 0.0 10222288
18:00+25sse235423 0.0 102293
21:00+19s227110 0.0 102321
19 august, fri
fri1900:00+17s22738 0.0 102420
03:00+17s227487 0.0 102432
06:00+17s12768 0.0 102546
09:00+24s235261 0.0 1026431
12:00+26sse344432 0.0 10261328
15:00+27sse233878 0.0 10252192
18:00+24ssw115648 0.0 102527
21:00+19se116927 0.0 102611